[[{"header":{"parameterUnit":"m.s-1","parameterCategory":2,"la1":30.2991,"la2":30.254,"lo1":-89.0895,"lo2":-89.0444,"dy":0.0017,"dx":0.0017,"nx":28,"ny":28,"refTime":"2024-07-09T21:00:00:Z","depth":"0","parameterNumber":2,"parameterNumberName":"U-component_of_CURRENTS"},"data":[0,0,0,0,0,0,0,0,0,0,0,0,0,0,0,0,0,0,0,0,0,0,0,0,0,0,0,0,0,0,0,0,0,0,0,0,0,0,0,0,0,0,0,0,0,0,0,0,0,0,0,0,0,0,0,0,0,0,0.2534,0.2536,0,0.2664,0.2666,0.2667,0.2733,0.2733,0.2734,0.2734,0.2776,0.2777,0.2778,0,0,0,0,0,0,0,0,0,0,0,0,0,0.229,0.2295,0.2534,0.2536,0.2538,0.2664,0.2666,0.2667,0.2733,0.2733,0.2734,0.2734,0.2775,0.2777,0.2778,0,0,0,0,0,0,0,0,0,0,0,0,0,0.2405,0.2296,0.2534,0.2586,0.2592,0.2664,0.2666,0.2668,0.2733,0.2733,0.2734,0.2734,0.2775,0.2776,0.2778,0.2784,0,0,0.2783,0.2783,0,0,0,0,0,0,0,0,0.2399,0.2414,0.2577,0.2583,0.259,0.2683,0.2595,0.2703,0.2733,0.2679,0.2734,0.2734,0.2737,0.2742,0.2766,0.2786,0.2788,0.2783,0.2784,0.2784,0.2785,0,0,0,0,0,0,0,0.2391,0.2408,0.2585,0.2579,0.2587,0.2585,0.2602,0.2616,0.2703,0.2684,0.2689,0.2705,0.274,0.2764,0.2767,0.2788,0.2783,0.2784,0.2785,0.2786,0.288,0.2881,0,0,0,0,0,0,0.238,0.2402,0.2581,0.2589,0.2493,0.2589,0.2608,0.2653,0.2705,0.2714,0.2704,0.2707,0.2762,0.2765,0.2769,0.2827,0.2784,0.2786,0.2787,0.2878,0.288,0.2882,0,0,0,0,0,0,0.2374,0.2395,0.2576,0.2496,0.2519,0.2594,0.2643,0.2655,0.2686,0.2722,0.2729,0.2723,0.2762,0.2767,0.2807,0.2826,0.2786,0.2788,0.2876,0.2879,0.2881,0.291,0,0,0,0,0,0,0.2367,0.2393,0.2419,0.2497,0.2524,0.2627,0.2643,0.2657,0.2695,0.27,0.274,0.2744,0.2763,0.2805,0.2809,0.2828,0.2789,0.2874,0.2877,0.288,0.2907,0.2913,0.2919,0,0,0,0,0,0.2358,0.2398,0.242,0.2442,0.2559,0.2628,0.2642,0.2693,0.2695,0.2718,0.2753,0.2743,0.2826,0.2808,0.2812,0.2831,0.2873,0.2876,0.288,0.2905,0.2912,0.2919,0,0,0,0,0,0,0.2286,0.2411,0.2437,0.2507,0.2564,0.264,0.267,0.2691,0.2738,0.2743,0.2763,0.2771,0.2819,0.282,0.2799,0.287,0.2847,0.2852,0.2865,0.2872,0.2878,0.2857,0.279,0,0,0,0,0,0.2286,0.2363,0.245,0.2502,0.2536,0.2598,0.2629,0.2665,0.2716,0.2737,0.2761,0.2793,0.2836,0.2849,0.2884,0.2912,0.2937,0.2929,0.2934,0.2939,0.2927,0.301,0.3022,0.2893,0.2893,0.2893,0,0,0.2261,0.2347,0.2381,0.2493,0.2545,0.26,0.2619,0.2677,0.2711,0.2731,0.2778,0.2814,0.2851,0.2902,0.2921,0.2903,0.2991,0.2943,0.2947,0.2932,0.3015,0.3028,0.3039,0.2896,0.2895,0.2895,0,0,0.2259,0.2338,0.2399,0.2463,0.2555,0.26,0.2613,0.269,0.2718,0.2763,0.2802,0.2851,0.2887,0.2938,0.2963,0.3014,0.3026,0.3021,0.3022,0.3104,0.3115,0.3125,0.318,0.3195,0.3015,0.3015,0.3015,0,0.2219,0.2325,0.2415,0.249,0.2534,0.2597,0.2642,0.2688,0.276,0.2781,0.2776,0.2878,0.2907,0.2989,0.3011,0.3026,0.3064,0.2993,0.3112,0.3122,0.3132,0.3185,0.3201,0.3017,0.3016,0.3016,0.3016,0,0.2256,0.2349,0.2389,0.2514,0.2563,0.262,0.2693,0.2729,0.2751,0.2794,0.2864,0.292,0.2978,0.3001,0.3016,0.3105,0.3108,0.3117,0.3091,0.3146,0.3199,0.3215,0.3019,0.3019,0.3018,0.3018,0,0,0.2143,0.2372,0.2385,0.246,0.2585,0.2631,0.2684,0.2755,0.2795,0.2846,0.2895,0.2976,0.3006,0.3037,0.3081,0.3137,0.3243,0.3146,0.3149,0.3193,0.3412,0.3328,0.3337,0.3277,0.328,0.3282,0.3424,0,0.2139,0.2297,0.2392,0.25,0.2583,0.2656,0.2703,0.2771,0.2819,0.2883,0.2945,0.3019,0.3025,0.3065,0.3126,0.3223,0.3284,0.3202,0.3357,0.336,0.3274,0.3352,0.3221,0.3329,0.3439,0.3442,0.3444,0,0.213,0.2255,0.2371,0.2542,0.2574,0.2621,0.2708,0.2766,0.2865,0.2905,0.298,0.3037,0.3144,0.3133,0.3309,0.3259,0.333,0.3388,0.3396,0.3311,0.3305,0.3291,0.3353,0.3272,0.3468,0.3466,0.3464,0,0.2036,0.2229,0.2327,0.2386,0.257,0.2597,0.2663,0.276,0.2812,0.2931,0.2971,0.3104,0.317,0.3287,0.3381,0.337,0.3552,0.3563,0.3553,0.3548,0.3459,0.344,0.3449,0.3682,0.3682,0.3682,0.3681,0,0.2015,0.2092,0.2297,0.236,0.2432,0.2562,0.2623,0.2701,0.2815,0.2875,0.2985,0.3047,0.321,0.3315,0.3409,0.3516,0.3587,0.3561,0.3585,0.3465,0.3446,0.3386,0.3325,0.3687,0.3686,0.3685,0.3684,0,0.1915,0.2059,0.2178,0.2363,0.2407,0.2451,0.259,0.2643,0.276,0.2837,0.2876,0.3034,0.3177,0.331,0.3504,0.354,0.3563,0.3676,0.35,0.3499,0.3395,0.3338,0.3264,0.3179,0.3712,0.3711,0.371,0,0.1895,0.1958,0.2142,0.2194,0.2275,0.237,0.2427,0.2582,0.2641,0.2812,0.2837,0.2999,0.3077,0.3316,0.3441,0.3598,0.3514,0.3544,0.3493,0.3369,0.3328,0.3217,0.3143,0.3406,0.3403,0.34,0.3398,0,0.1842,0.1896,0.1996,0.2107,0.2179,0.2261,0.236,0.2406,0.2572,0.264,0.2745,0.2826,0.3038,0.3136,0.332,0.3409,0.3354,0.3489,0.3431,0.3133,0.2946,0.2881,0.3318,0.3373,0.3376,0.3377,0.3379,0.338,0.1771,0.1813,0.1942,0.2025,0.2094,0.2157,0.2195,0.2292,0.2373,0.2474,0.2602,0.2668,0.2844,0.3093,0.3162,0.3188,0.3193,0.3151,0.3114,0.3029,0.2864,0.3216,0.3244,0.3245,0.3247,0.3248,0.3249,0,0.1726,0.1791,0.1864,0.1969,0.1994,0.2066,0.2152,0.2178,0.2226,0.2306,0.2385,0.2496,0.2596,0.2747,0.2876,0.2835,0.2759,0.2778,0.2611,0.2576,0.2971,0.2872,0.2734,0.2734,0.2734,0.2734,0.2734,0.2734,0.1716,0.1775,0.1829,0.1868,0.1912,0.1938,0.1972,0.2,0.2048,0.2074,0.2098,0.2186,0.2391,0.2558,0.2577,0.2536,0.2379,0.2274,0.2287,0.258,0.2612,0.2643,0.2538,0.2333,0.2332,0.1821,0.1817,0.1814]},{"header":{"parameterUnit":"m.s-1","parameterCategory":2,"la1":30.2991,"la2":30.254,"lo1":-89.0895,"lo2":-89.0444,"dy":0.0017,"dx":0.0017,"nx":28,"ny":28,"refTime":"2024-07-09T21:00:00:Z","depth":"0","parameterNumber":3,"parameterNumberName":"V-component_of_CURRENTS"},"data":[0,0,0,0,0,0,0,0,0,0,0,0,0,0,0,0,0,0,0,0,0,0,0,0,0,0,0,0,0,0,0,0,0,0,0,0,0,0,0,0,0,0,0,0,0,0,0,0,0,0,0,0,0,0,0,0,0,0,0.0113,0.0113,0,0.008,0.0079,0.0079,0.0037,0.0036,0.0036,0.0035,-0.0096,-0.0099,-0.0102,0,0,0,0,0,0,0,0,0,0,0,0,0,0.0175,0.0173,0.0113,0.0113,0.0113,0.008,0.0079,0.0079,0.0037,0.0036,0.0036,0.0035,-0.0095,-0.0099,-0.0102,0,0,0,0,0,0,0,0,0,0,0,0,0,0.0144,0.0173,0.0113,0.0089,0.0086,0.008,0.0079,0.0079,0.0037,0.0036,0.0036,0.0035,-0.0094,-0.0098,-0.0103,-0.0113,0,0,-0.0116,-0.0118,0,0,0,0,0,0,0,0,0.0146,0.0142,0.0093,0.009,0.0088,0.0063,0.0053,0.001,0.0037,0.0055,0.0035,0.0034,-0.0051,-0.0059,-0.0063,-0.012,-0.0125,-0.0117,-0.012,-0.0122,-0.0123,0,0,0,0,0,0,0,0.0148,0.0143,0.0099,0.0092,0.0089,0.0091,0.0085,0.0045,0.0004,0.0053,0.005,0.0049,-0.0053,-0.0059,-0.0067,-0.0127,-0.0117,-0.0121,-0.0123,-0.0125,-0.0213,-0.0212,0,0,0,0,0,0,0.0153,0.0145,0.01,0.0098,0.0117,0.0091,0.0084,0.0071,0.0007,-0.0003,0.0049,0.0047,-0.0051,-0.0062,-0.0072,-0.0091,-0.0121,-0.0126,-0.0128,-0.0213,-0.0212,-0.0212,0,0,0,0,0,0,0.0155,0.0149,0.0101,0.0123,0.0117,0.009,0.0076,0.0071,0.0063,0.0005,-0.0006,0.0048,-0.0052,-0.0066,-0.0112,-0.0097,-0.0128,-0.0132,-0.0213,-0.0213,-0.0212,-0.0129,0,0,0,0,0,0,0.0156,0.015,0.0154,0.0122,0.0116,0.0099,0.0076,0.0071,0.0064,0.0061,-0.0,-0.0013,-0.0054,-0.0105,-0.0116,-0.0104,-0.0135,-0.0214,-0.0213,-0.0212,-0.0132,-0.0126,-0.012,0,0,0,0,0,0.0158,0.0177,0.0154,0.015,0.0118,0.0099,0.0096,0.0074,0.0065,0.0064,0.002,-0.0011,-0.0108,-0.0108,-0.0122,-0.011,-0.0214,-0.0213,-0.0213,-0.0135,-0.0127,-0.012,0,0,0,0,0,0,0.0222,0.0173,0.0148,0.0154,0.0124,0.0092,0.0105,0.008,0.0049,0.0045,-0.0013,-0.0029,-0.0064,-0.0099,-0.0098,-0.0134,-0.0164,-0.0166,-0.01,-0.0093,-0.0087,-0.0054,-0.0139,0,0,0,0,0,0.0233,0.0226,0.0177,0.0185,0.0172,0.0136,0.0131,0.0107,0.0073,0.0059,0.0014,-0.003,-0.0069,-0.0091,-0.0135,-0.0155,-0.0159,-0.0155,-0.0149,-0.0143,-0.0126,-0.0112,-0.0102,-0.0209,-0.0209,-0.0209,0,0,0.0261,0.0237,0.0233,0.0197,0.0177,0.0167,0.0131,0.0124,0.0116,0.0048,0.003,-0.0017,-0.0072,-0.0097,-0.0114,-0.0125,-0.0116,-0.0142,-0.0137,-0.0122,-0.0109,-0.0099,-0.0089,-0.0209,-0.0209,-0.0209,0,0,0.0314,0.0288,0.0293,0.027,0.0236,0.0207,0.0204,0.0161,0.0143,0.011,0.0066,0.0037,-0.0033,-0.0054,-0.0077,-0.0062,-0.0088,-0.0085,-0.0023,-0.0009,0.0001,0.0009,0.0019,0.0028,-0.0076,-0.0076,-0.0076,0,0.0348,0.034,0.0296,0.0295,0.0287,0.0226,0.0228,0.0204,0.0152,0.0148,0.0111,0.0051,-0.0004,-0.0006,-0.001,-0.0044,-0.0046,-0.0044,0.0002,0.001,0.0018,0.0026,0.0034,-0.0072,-0.0072,-0.0072,-0.0073,0,0.0386,0.0387,0.0395,0.0361,0.0348,0.0343,0.0293,0.0279,0.0243,0.0217,0.0198,0.0134,0.0109,0.008,0.003,0.0058,0.0036,0.0006,-0.0009,0.0034,0.0039,0.0047,-0.0066,-0.0067,-0.0068,-0.0069,0,0,0.0433,0.0419,0.0421,0.0425,0.0378,0.0374,0.0366,0.0342,0.0362,0.0302,0.0332,0.0255,0.0235,0.0208,0.0158,0.0156,0.019,0.0103,0.0102,0.0128,0.0221,0.0181,0.0185,0.0168,0.017,0.0171,0.0204,0,0.0468,0.0492,0.0466,0.049,0.0496,0.0449,0.0454,0.0433,0.0406,0.042,0.0371,0.0369,0.028,0.0281,0.0265,0.0211,0.0213,0.0184,0.0163,0.0163,0.0134,0.0193,0.016,0.0185,0.0212,0.0213,0.0214,0,0.0501,0.0515,0.0546,0.0561,0.056,0.0569,0.0578,0.0573,0.0571,0.0559,0.0555,0.0515,0.0508,0.0427,0.0384,0.0368,0.0305,0.0256,0.0256,0.0199,0.0137,0.0144,0.0197,0.0026,0.0225,0.0224,0.0223,0,0.0557,0.0571,0.0604,0.0604,0.0607,0.0628,0.0629,0.0628,0.0651,0.0669,0.0703,0.0668,0.0681,0.0601,0.0481,0.0442,0.0434,0.0374,0.0284,0.028,0.0238,0.0228,0.0138,0.0357,0.0357,0.0357,0.0357,0,0.0601,0.0628,0.0642,0.0663,0.0713,0.0699,0.0763,0.0755,0.0794,0.0853,0.0796,0.0851,0.0724,0.0689,0.0556,0.0455,0.05,0.0318,0.0296,0.0264,0.0256,0.0092,0.0026,0.0358,0.0358,0.0358,0.0358,0,0.0651,0.0659,0.0699,0.0726,0.0744,0.0781,0.0843,0.0894,0.0922,0.1006,0.1025,0.1017,0.0968,0.0825,0.0712,0.0575,0.0381,0.041,0.0377,0.035,0.0086,0.0028,-0.0027,-0.008,0.033,0.0329,0.0329,0,0.0677,0.0704,0.0748,0.078,0.0797,0.086,0.091,0.0951,0.1012,0.111,0.1162,0.1159,0.116,0.0985,0.0741,0.0534,0.0381,0.0359,0.0271,0.0089,0.0008,-0.0032,-0.0075,0.025,0.0249,0.0248,0.0247,0,0.0718,0.073,0.0759,0.0828,0.0889,0.0962,0.1042,0.1116,0.1183,0.1269,0.137,0.1393,0.123,0.1023,0.0735,0.0563,0.025,0.0332,0.0161,-0.0037,-0.0098,-0.0167,0.0204,0.0239,0.024,0.024,0.0241,0.0241,0.074,0.0764,0.0807,0.0868,0.094,0.1047,0.1126,0.1229,0.1354,0.1483,0.1506,0.1537,0.1228,0.0836,0.062,0.0144,0.0193,-0.0024,-0.0069,-0.0085,-0.017,0.018,0.0172,0.0172,0.0172,0.0173,0.0173,0,0.0766,0.0793,0.0847,0.093,0.101,0.1051,0.1196,0.1292,0.1447,0.155,0.1637,0.1446,0.1074,0.0669,0.0083,-0.0211,-0.0306,-0.0384,-0.0464,-0.0481,-0.0164,-0.0207,-0.0319,-0.0319,-0.0318,-0.0318,-0.0318,-0.0318,0.0781,0.0828,0.0855,0.0976,0.1039,0.117,0.126,0.141,0.1506,0.1624,0.1601,0.1577,0.1226,0.0235,-0.0463,-0.0616,-0.0788,-0.082,-0.0886,-0.072,-0.0691,-0.0663,-0.0724,-0.0941,-0.0942,-0.1199,-0.1202,-0.1204]}],[{"header":{"parameterUnit":"m.s-1","parameterCategory":2,"la1":30.2991,"la2":30.254,"lo1":-89.0895,"lo2":-89.0444,"dy":0.0017,"dx":0.0017,"nx":28,"ny":28,"refTime":"2024-07-09T21:00:00:Z","depth":"2","parameterNumber":2,"parameterNumberName":"U-component_of_CURRENTS"},"data":[0,0,0,0,0,0,0,0,0,0,0,0,0,0,0,0,0,0,0,0,0,0,0,0,0,0,0,0,0,0,0,0,0,0,0,0,0,0,0,0,0,0,0,0,0,0,0,0,0,0,0,0,0,0,0,0,0,0,0.0888,0.0887,0,0.0809,0.0808,0.0808,0.0803,0.0804,0.0805,0.0805,0.0828,0.0827,0.0827,0,0,0,0,0,0,0,0,0,0,0,0,0,0.0931,0.0931,0.0888,0.0887,0.0886,0.0809,0.0808,0.0807,0.0803,0.0804,0.0805,0.0806,0.0828,0.0827,0.0827,0,0,0,0,0,0,0,0,0,0,0,0,0,0.089,0.0931,0.0888,0.0874,0.0871,0.0809,0.0808,0.0807,0.0803,0.0804,0.0805,0.0806,0.0828,0.0828,0.0827,0.0802,0,0,0.0827,0.0826,0,0,0,0,0,0,0,0,0.0892,0.0889,0.0877,0.0874,0.0872,0.0816,0.0831,0.081,0.0802,0.083,0.0805,0.0807,0.0832,0.0831,0.0814,0.0803,0.0804,0.0827,0.0826,0.0826,0.0826,0,0,0,0,0,0,0,0.0895,0.0891,0.0858,0.0876,0.0873,0.0835,0.0832,0.0826,0.0828,0.0828,0.0827,0.0816,0.0831,0.0814,0.0815,0.0804,0.0827,0.0826,0.0826,0.0826,0.0879,0.0881,0,0,0,0,0,0,0.0907,0.0894,0.0861,0.0856,0.0884,0.0834,0.083,0.0834,0.0826,0.0824,0.0815,0.0816,0.0814,0.0815,0.0815,0.0876,0.0826,0.0826,0.0826,0.0878,0.088,0.0881,0,0,0,0,0,0,0.0908,0.0905,0.0864,0.0871,0.0863,0.0833,0.0836,0.0832,0.0847,0.0815,0.0816,0.0839,0.0815,0.0816,0.0835,0.0874,0.0826,0.0826,0.0876,0.0878,0.0881,0.094,0,0,0,0,0,0,0.091,0.0907,0.0907,0.0873,0.0863,0.0842,0.0835,0.0829,0.0836,0.0838,0.0835,0.0836,0.0816,0.0835,0.0834,0.0873,0.0826,0.0874,0.0877,0.088,0.0936,0.0944,0.095,0,0,0,0,0,0.0912,0.09,0.0908,0.0903,0.0868,0.0842,0.0835,0.0816,0.0837,0.0838,0.0844,0.0838,0.0854,0.0835,0.0834,0.0874,0.0873,0.0876,0.088,0.0932,0.0942,0.095,0,0,0,0,0,0,0.0901,0.0897,0.0906,0.089,0.0879,0.0842,0.0827,0.0838,0.0841,0.0855,0.0845,0.0845,0.0877,0.0868,0.0848,0.09,0.0868,0.0871,0.0908,0.0917,0.0925,0.0943,0.0825,0,0,0,0,0,0.0905,0.0917,0.0896,0.0891,0.0882,0.087,0.0859,0.0861,0.0856,0.086,0.0868,0.0878,0.0883,0.0896,0.0891,0.0916,0.0962,0.0946,0.0953,0.0959,0.0975,0.1062,0.108,0.0893,0.0893,0.0893,0,0,0.0905,0.09,0.0909,0.0893,0.088,0.0878,0.0867,0.0863,0.088,0.0862,0.0897,0.09,0.0893,0.0916,0.0932,0.092,0.1046,0.0964,0.0969,0.0982,0.1068,0.1086,0.1103,0.0895,0.0895,0.0894,0,0,0.0917,0.0904,0.0926,0.0915,0.0907,0.0891,0.0906,0.09,0.0911,0.0935,0.0935,0.0964,0.0973,0.0977,0.0979,0.1028,0.1076,0.1042,0.1101,0.1186,0.1202,0.1217,0.134,0.1365,0.1053,0.1053,0.1054,0,0.0918,0.0936,0.0923,0.0931,0.0921,0.0912,0.0925,0.0924,0.0938,0.0976,0.0959,0.1022,0.0999,0.1054,0.1058,0.1046,0.1123,0.1064,0.1197,0.1213,0.1227,0.1349,0.1376,0.1057,0.1056,0.1056,0.1056,0,0.0944,0.0958,0.0958,0.0977,0.0967,0.0966,0.0962,0.0991,0.1012,0.104,0.1111,0.1087,0.1153,0.1132,0.1098,0.1198,0.1233,0.1191,0.1176,0.125,0.1373,0.1401,0.1061,0.106,0.1059,0.1058,0,0,0.0969,0.0977,0.0988,0.1,0.0989,0.0986,0.1019,0.1057,0.1132,0.1147,0.1247,0.1229,0.1281,0.1285,0.1273,0.1305,0.1453,0.1298,0.1301,0.1425,0.1701,0.1565,0.1582,0.145,0.1454,0.1457,0.1763,0,0.1001,0.1014,0.1023,0.1052,0.1045,0.1054,0.1084,0.113,0.1189,0.1285,0.1301,0.1385,0.1325,0.138,0.1413,0.142,0.1523,0.1378,0.1608,0.1616,0.1487,0.1606,0.1422,0.1662,0.1789,0.1794,0.1797,0,0.1029,0.1036,0.1047,0.1083,0.1087,0.1115,0.1192,0.1227,0.135,0.142,0.1537,0.158,0.1654,0.1582,0.1714,0.1638,0.1708,0.1705,0.1717,0.1584,0.1527,0.1601,0.1707,0.1843,0.1839,0.1835,0.1832,0,0.1022,0.1061,0.1065,0.1066,0.1097,0.1143,0.118,0.1286,0.1345,0.1548,0.164,0.1768,0.1826,0.1911,0.1911,0.1863,0.2038,0.1982,0.1957,0.1951,0.1832,0.1805,0.215,0.2149,0.2149,0.2148,0.2147,0,0.1033,0.1064,0.1071,0.1075,0.1125,0.1153,0.1257,0.1345,0.1478,0.1582,0.173,0.1819,0.1906,0.1996,0.202,0.2062,0.217,0.2008,0.2021,0.1847,0.182,0.1978,0.1954,0.2159,0.2157,0.2155,0.2153,0,0.1057,0.1046,0.1053,0.1088,0.1113,0.1153,0.1265,0.1357,0.1497,0.1643,0.1718,0.1889,0.2019,0.21,0.2226,0.2183,0.224,0.2254,0.2051,0.2029,0.2098,0.2074,0.2302,0.23,0.2298,0.2296,0.2295,0,0.1068,0.1055,0.1051,0.107,0.1106,0.1177,0.1236,0.1359,0.1452,0.1655,0.1712,0.1904,0.2003,0.2141,0.2124,0.2227,0.2279,0.212,0.1951,0.2125,0.2116,0.2094,0.2073,0.1872,0.1867,0.1864,0.1861,0,0.1073,0.105,0.1068,0.1087,0.1135,0.1186,0.128,0.1324,0.1473,0.1591,0.1718,0.1806,0.1939,0.1911,0.2015,0.2023,0.2066,0.2039,0.2337,0.1798,0.1726,0.1712,0.1706,0.1826,0.183,0.1832,0.1834,0.1835,0.1076,0.1078,0.1059,0.1103,0.1161,0.1186,0.1205,0.1321,0.1401,0.1534,0.1594,0.1692,0.1733,0.1766,0.175,0.1757,0.1869,0.1816,0.1828,0.1843,0.1675,0.1595,0.1646,0.1649,0.1651,0.1652,0.1654,0,0.102,0.1051,0.1081,0.1101,0.1147,0.1183,0.1229,0.1221,0.1296,0.144,0.151,0.1404,0.141,0.1509,0.1433,0.1414,0.1398,0.1401,0.1375,0.1408,0.1438,0.1247,0.1108,0.1107,0.1105,0.1104,0,0,0.1003,0.0989,0.0999,0.1039,0.1101,0.1102,0.1095,0.1129,0.1187,0.1222,0.1293,0.1364,0.1447,0.1264,0.1222,0.1168,0.1288,0.1132,0.1564,0.1565,0.1594,0.1665,0.1405,0,0,0,0,0]},{"header":{"parameterUnit":"m.s-1","parameterCategory":2,"la1":30.2991,"la2":30.254,"lo1":-89.0895,"lo2":-89.0444,"dy":0.0017,"dx":0.0017,"nx":28,"ny":28,"refTime":"2024-07-09T21:00:00:Z","depth":"2","parameterNumber":3,"parameterNumberName":"V-component_of_CURRENTS"},"data":[0,0,0,0,0,0,0,0,0,0,0,0,0,0,0,0,0,0,0,0,0,0,0,0,0,0,0,0,0,0,0,0,0,0,0,0,0,0,0,0,0,0,0,0,0,0,0,0,0,0,0,0,0,0,0,0,0,0,-0.044,-0.044,0,-0.042,-0.042,-0.042,-0.0415,-0.0415,-0.0415,-0.0415,-0.0466,-0.0467,-0.0468,0,0,0,0,0,0,0,0,0,0,0,0,0,-0.0384,-0.0386,-0.0441,-0.044,-0.044,-0.042,-0.042,-0.042,-0.0415,-0.0415,-0.0415,-0.0416,-0.0465,-0.0467,-0.0468,0,0,0,0,0,0,0,0,0,0,0,0,0,-0.0391,-0.0386,-0.0441,-0.0435,-0.0434,-0.042,-0.042,-0.042,-0.0415,-0.0415,-0.0415,-0.0416,-0.0465,-0.0466,-0.0468,-0.0477,0,0,-0.0474,-0.0475,0,0,0,0,0,0,0,0,-0.0391,-0.0394,-0.0436,-0.0435,-0.0434,-0.042,-0.0418,-0.0442,-0.0415,-0.0423,-0.0415,-0.0416,-0.0456,-0.0459,-0.0454,-0.0479,-0.0481,-0.0474,-0.0475,-0.0476,-0.0477,0,0,0,0,0,0,0,-0.0391,-0.0394,-0.0433,-0.0436,-0.0435,-0.0402,-0.0404,-0.0422,-0.0441,-0.0422,-0.0422,-0.0419,-0.0457,-0.0453,-0.0456,-0.0482,-0.0474,-0.0476,-0.0477,-0.0478,-0.0538,-0.0539,0,0,0,0,0,0,-0.0397,-0.0394,-0.0434,-0.0432,-0.0412,-0.0403,-0.0406,-0.0425,-0.0439,-0.0441,-0.0419,-0.0418,-0.0449,-0.0454,-0.0458,-0.0479,-0.0476,-0.0478,-0.0479,-0.0538,-0.0539,-0.0539,0,0,0,0,0,0,-0.0397,-0.0402,-0.0434,-0.041,-0.0412,-0.0405,-0.0426,-0.0424,-0.0426,-0.0435,-0.0438,-0.0422,-0.045,-0.0455,-0.0477,-0.0481,-0.0479,-0.048,-0.0537,-0.0538,-0.0539,-0.0516,0,0,0,0,0,0,-0.0396,-0.0402,-0.0416,-0.0412,-0.0414,-0.0427,-0.0426,-0.0424,-0.0423,-0.0423,-0.044,-0.0444,-0.045,-0.0474,-0.0479,-0.0483,-0.0482,-0.0537,-0.0538,-0.0539,-0.0516,-0.0516,-0.0516,0,0,0,0,0,-0.0394,-0.041,-0.0417,-0.0421,-0.0435,-0.0427,-0.0425,-0.0419,-0.0423,-0.0422,-0.0436,-0.0444,-0.0484,-0.0476,-0.0481,-0.0486,-0.0536,-0.0537,-0.0538,-0.0516,-0.0516,-0.0516,0,0,0,0,0,0,-0.0392,-0.0411,-0.0419,-0.0441,-0.0435,-0.0426,-0.042,-0.0423,-0.0431,-0.0434,-0.0449,-0.0454,-0.0473,-0.0488,-0.0479,-0.0508,-0.0512,-0.0514,-0.0493,-0.0493,-0.0493,-0.0471,-0.0483,0,0,0,0,0,-0.0399,-0.0415,-0.0423,-0.0436,-0.0436,-0.0432,-0.0428,-0.0426,-0.0431,-0.0434,-0.0446,-0.0464,-0.048,-0.0493,-0.0506,-0.0526,-0.053,-0.0534,-0.0534,-0.0534,-0.0521,-0.0547,-0.0547,-0.0543,-0.0543,-0.0543,0,0,-0.0393,-0.0411,-0.0415,-0.0435,-0.0431,-0.0424,-0.043,-0.0424,-0.0421,-0.044,-0.0445,-0.0463,-0.0485,-0.0499,-0.051,-0.0514,-0.0535,-0.0535,-0.0534,-0.0521,-0.0548,-0.0548,-0.0549,-0.0544,-0.0543,-0.0543,0,0,-0.0378,-0.0414,-0.0413,-0.0415,-0.0416,-0.0418,-0.042,-0.0418,-0.0422,-0.0431,-0.0444,-0.0462,-0.0488,-0.0499,-0.051,-0.0521,-0.0531,-0.0534,-0.0517,-0.0543,-0.0543,-0.0543,-0.0535,-0.0534,-0.0536,-0.0536,-0.0536,0,-0.0365,-0.0381,-0.0406,-0.0404,-0.0401,-0.0418,-0.0405,-0.0413,-0.0418,-0.042,-0.0431,-0.046,-0.0483,-0.0497,-0.05,-0.0518,-0.0525,-0.0514,-0.0541,-0.0541,-0.0542,-0.0533,-0.0533,-0.0535,-0.0536,-0.0536,-0.0536,0,-0.0337,-0.0356,-0.0354,-0.0365,-0.0369,-0.0361,-0.0377,-0.0383,-0.0397,-0.04,-0.0416,-0.0444,-0.0453,-0.0476,-0.0491,-0.0508,-0.0508,-0.0534,-0.0537,-0.0541,-0.0532,-0.0532,-0.0534,-0.0534,-0.0535,-0.0535,0,0,-0.0274,-0.0324,-0.0321,-0.0326,-0.0349,-0.0343,-0.0354,-0.0357,-0.0337,-0.0376,-0.0357,-0.0408,-0.0414,-0.0427,-0.0454,-0.0487,-0.0498,-0.0511,-0.0513,-0.0492,-0.0532,-0.0548,-0.055,-0.0535,-0.0536,-0.0536,-0.0518,0,-0.0233,-0.0235,-0.0273,-0.0264,-0.0259,-0.0295,-0.0299,-0.0311,-0.0307,-0.0294,-0.0349,-0.0333,-0.0399,-0.0383,-0.0437,-0.0475,-0.0501,-0.0499,-0.0539,-0.0539,-0.0546,-0.0552,-0.0523,-0.0507,-0.0518,-0.0518,-0.0518,0,-0.0183,-0.019,-0.0185,-0.0219,-0.0219,-0.0218,-0.0208,-0.0215,-0.022,-0.0208,-0.022,-0.0238,-0.028,-0.0329,-0.0419,-0.0416,-0.0466,-0.051,-0.0511,-0.0533,-0.0557,-0.0509,-0.0507,-0.0519,-0.0519,-0.0518,-0.0518,0,-0.0119,-0.0134,-0.0133,-0.0139,-0.017,-0.0169,-0.0185,-0.0182,-0.0164,-0.0131,-0.0085,-0.0153,-0.0149,-0.0255,-0.0352,-0.0379,-0.0444,-0.049,-0.0549,-0.0549,-0.0534,-0.0533,-0.0545,-0.0545,-0.0545,-0.0545,-0.0545,0,-0.0077,-0.006,-0.0098,-0.0094,-0.0061,-0.0113,-0.0072,-0.0071,-0.0054,-0.0001,-0.0031,0.0007,-0.0132,-0.0188,-0.0309,-0.0424,-0.0411,-0.0536,-0.0552,-0.0525,-0.0523,-0.0547,-0.0547,-0.0544,-0.0544,-0.0544,-0.0544,0,-0.0017,-0.0041,-0.0033,-0.0055,-0.0038,-0.0023,-0.001,0.0034,0.0051,0.0131,0.015,0.013,0.0063,-0.0071,-0.0209,-0.0337,-0.0457,-0.0495,-0.0436,-0.0448,-0.0552,-0.0551,-0.0562,-0.0563,-0.0563,-0.0564,-0.0564,0,0.0017,0.0017,0.0004,0.0039,0.0037,0.0066,0.0106,0.0101,0.0152,0.0205,0.025,0.0228,0.0212,0.0005,-0.0201,-0.0387,-0.0426,-0.0477,-0.0542,-0.0541,-0.0556,-0.0555,-0.0554,-0.0498,-0.0498,-0.0498,-0.0498,0,0.0074,0.0046,0.0049,0.0105,0.0155,0.0205,0.0249,0.03,0.0315,0.0396,0.0453,0.0439,0.0257,0.0062,-0.0187,-0.0324,-0.0456,-0.0481,-0.0487,-0.051,-0.0484,-0.0498,-0.0498,-0.0496,-0.0496,-0.0496,-0.0496,-0.0497,0.0116,0.0126,0.0107,0.0169,0.0252,0.033,0.0371,0.046,0.0544,0.0647,0.0573,0.0578,0.0322,0.0005,-0.021,-0.0414,-0.0448,-0.0532,-0.0531,-0.0531,-0.0539,-0.0517,-0.0534,-0.0534,-0.0534,-0.0535,-0.0535,0,0.0125,0.0139,0.0186,0.0248,0.034,0.0371,0.047,0.0525,0.0672,0.0763,0.0796,0.0565,0.0327,0.0078,-0.0234,-0.046,-0.0467,-0.0505,-0.0474,-0.0476,-0.0478,-0.0482,-0.0462,-0.0462,-0.0462,-0.0461,0,0,0.014,0.0142,0.015,0.0293,0.0384,0.0505,0.0564,0.0709,0.0785,0.0884,0.0898,0.0756,0.0409,0.0197,-0.0106,-0.0264,-0.0303,-0.0285,-0.0328,-0.0259,-0.0257,-0.0488,-0.0497,0,0,0,0,0]}],[{"header":{"parameterUnit":"m.s-1","parameterCategory":2,"la1":30.2991,"la2":30.254,"lo1":-89.0895,"lo2":-89.0444,"dy":0.0017,"dx":0.0017,"nx":28,"ny":28,"refTime":"2024-07-09T21:00:00:Z","depth":"4","parameterNumber":2,"parameterNumberName":"U-component_of_CURRENTS"},"data":[0,0,0,0,0,0,0,0,0,0,0,0,0,0,0,0,0,0,0,0,0,0,0,0,0,0,0,0,0,0,0,0,0,0,0,0,0,0,0,0,0,0,0,0,0,0,0,0,0,0,0,0,0,0,0,0,0,0,0.0179,0.018,0,0.0247,0.0248,0.0248,0.0295,0.0295,0.0296,0.0296,0.0279,0.0278,0.0277,0,0,0,0,0,0,0,0,0,0,0,0,0,0.0152,0.0151,0.0179,0.018,0.0181,0.0247,0.0248,0.0248,0.0294,0.0295,0.0296,0.0297,0.028,0.0278,0.0277,0,0,0,0,0,0,0,0,0,0,0,0,0,0.0183,0.0151,0.0178,0.0214,0.0218,0.0247,0.0248,0.0248,0.0294,0.0295,0.0296,0.0297,0.028,0.0278,0.0277,0.025,0,0,0.0272,0.0272,0,0,0,0,0,0,0,0,0.0181,0.0184,0.0208,0.0212,0.0216,0.0266,0.0232,0.0246,0.0294,0.0262,0.0296,0.0297,0.0268,0.0267,0.0276,0.0249,0.0249,0.0272,0.0271,0.0271,0.027,0,0,0,0,0,0,0,0.0179,0.0181,0.0203,0.0209,0.0214,0.0248,0.0253,0.0235,0.0255,0.0265,0.0269,0.0281,0.0269,0.0277,0.0275,0.0248,0.0272,0.0271,0.027,0.0269,0.0247,0.0247,0,0,0,0,0,0,0.0172,0.0179,0.0201,0.0205,0.0204,0.0248,0.0253,0.0247,0.0258,0.0262,0.028,0.0283,0.0279,0.0277,0.0275,0.0298,0.0271,0.0269,0.0268,0.0246,0.0247,0.0247,0,0,0,0,0,0,0.017,0.0172,0.0198,0.0197,0.0203,0.0247,0.024,0.0248,0.0277,0.0271,0.0273,0.0305,0.028,0.0277,0.0282,0.0295,0.0269,0.0267,0.0246,0.0246,0.0247,0.0308,0,0,0,0,0,0,0.0169,0.0171,0.017,0.0196,0.0203,0.0227,0.024,0.0248,0.0283,0.0288,0.0292,0.029,0.028,0.0285,0.0281,0.0293,0.0266,0.0246,0.0246,0.0247,0.0306,0.0311,0.0315,0,0,0,0,0,0.0167,0.0158,0.0168,0.0172,0.0197,0.0228,0.0235,0.0268,0.0283,0.0297,0.0305,0.0291,0.0285,0.0284,0.0279,0.0291,0.0245,0.0246,0.0247,0.0304,0.031,0.0315,0,0,0,0,0,0,0.0162,0.0163,0.0175,0.0172,0.0205,0.0237,0.0257,0.0277,0.0296,0.0302,0.0297,0.0295,0.0304,0.0285,0.0284,0.0284,0.0261,0.0261,0.0306,0.0312,0.0316,0.0333,0.0265,0,0,0,0,0,0.0155,0.0137,0.0168,0.0169,0.0188,0.0226,0.0246,0.0267,0.0287,0.0299,0.0306,0.0304,0.0299,0.0298,0.0289,0.0287,0.0284,0.029,0.0294,0.0298,0.0308,0.031,0.0316,0.0249,0.0249,0.0249,0,0,0.0154,0.0154,0.0147,0.0166,0.0195,0.0221,0.024,0.0274,0.0298,0.0289,0.0323,0.032,0.0302,0.0309,0.0309,0.0298,0.0318,0.0299,0.0303,0.0311,0.0311,0.0318,0.0324,0.025,0.025,0.0249,0,0,0.0144,0.0148,0.0136,0.0164,0.0204,0.0227,0.0241,0.0285,0.0311,0.0337,0.0338,0.0346,0.0344,0.0338,0.0332,0.035,0.0343,0.0347,0.0385,0.0387,0.0393,0.0398,0.0417,0.0423,0.0349,0.0349,0.0349,0,0.016,0.0135,0.0146,0.016,0.0189,0.0231,0.0255,0.0284,0.0325,0.035,0.0353,0.0374,0.0356,0.0367,0.0379,0.0361,0.0372,0.0369,0.0395,0.0399,0.0404,0.0422,0.0428,0.0352,0.0352,0.0351,0.0351,0,0.014,0.0141,0.0148,0.0166,0.0199,0.0227,0.0275,0.0312,0.0348,0.0379,0.0417,0.0408,0.0423,0.0416,0.0405,0.0428,0.0431,0.0403,0.0386,0.0414,0.0431,0.0437,0.0356,0.0355,0.0354,0.0354,0,0,0.0164,0.0133,0.015,0.0152,0.0207,0.0233,0.0282,0.0338,0.0382,0.042,0.0471,0.0469,0.0488,0.0481,0.0471,0.0475,0.0513,0.0463,0.0462,0.0492,0.0545,0.0527,0.053,0.05,0.05,0.0501,0.0551,0,0.0169,0.0146,0.0155,0.0184,0.0187,0.0249,0.0297,0.0355,0.0407,0.0466,0.0484,0.0521,0.0506,0.0522,0.0527,0.052,0.0529,0.0504,0.0504,0.0504,0.0492,0.0536,0.0504,0.0555,0.0556,0.0557,0.0557,0,0.0188,0.0151,0.0149,0.0171,0.0192,0.0229,0.0321,0.0369,0.0459,0.0504,0.0555,0.0579,0.0612,0.0582,0.0603,0.0597,0.0581,0.0568,0.0569,0.0534,0.0495,0.0514,0.0567,0.0566,0.0565,0.0565,0.0564,0,0.0194,0.0185,0.0166,0.0177,0.02,0.0241,0.0288,0.0384,0.0445,0.0537,0.0593,0.0633,0.067,0.0659,0.0661,0.0637,0.0682,0.0631,0.06,0.0599,0.0573,0.0566,0.0633,0.0633,0.0633,0.0633,0.0633,0,0.0215,0.0216,0.016,0.0161,0.0176,0.0227,0.0303,0.0364,0.0471,0.0544,0.0614,0.0662,0.0694,0.0729,0.0697,0.0691,0.0711,0.0626,0.0613,0.0598,0.0594,0.0578,0.0571,0.0635,0.0634,0.0634,0.0634,0,0.0257,0.021,0.0195,0.0184,0.0177,0.0213,0.0303,0.0361,0.0473,0.057,0.0608,0.0711,0.0748,0.0779,0.0773,0.0745,0.0723,0.0706,0.073,0.0715,0.0628,0.0623,0.067,0.067,0.067,0.0669,0.0669,0,0.0263,0.0244,0.0208,0.0199,0.02,0.0233,0.026,0.035,0.0407,0.0578,0.0608,0.0711,0.0759,0.0769,0.0775,0.0758,0.0726,0.074,0.0647,0.065,0.0633,0.0628,0.0624,0.0669,0.0669,0.0669,0.0669,0,0.0276,0.0278,0.0265,0.0233,0.0233,0.0239,0.0278,0.03,0.0419,0.0515,0.061,0.0667,0.0721,0.073,0.0762,0.0722,0.0747,0.0737,0.0735,0.0648,0.0649,0.0631,0.0627,0.0669,0.0669,0.0669,0.0669,0,0.0307,0.0304,0.0286,0.0271,0.0272,0.0255,0.026,0.0302,0.0357,0.0513,0.0524,0.0628,0.0702,0.071,0.0711,0.0717,0.0669,0.0637,0.0639,0.064,0.0606,0.0603,0.0613,0,0,0,0,0,0.0314,0.0306,0.031,0.029,0.0315,0.0293,0.0283,0.0291,0.0344,0.0395,0.0474,0.0515,0.0583,0.0614,0.0605,0.0661,0.0655,0.0648,0.0614,0.0666,0.0666,0.0629,0,0,0,0,0,0,0.031,0.0317,0.0307,0.0321,0.032,0.0317,0.0291,0.0311,0.0324,0.0398,0.0411,0.0509,0.0541,0.0601,0.0613,0.0623,0.0592,0.0701,0.07,0.0665,0.0666,0.0666,0.0628,0,0,0,0,0]},{"header":{"parameterUnit":"m.s-1","parameterCategory":2,"la1":30.2991,"la2":30.254,"lo1":-89.0895,"lo2":-89.0444,"dy":0.0017,"dx":0.0017,"nx":28,"ny":28,"refTime":"2024-07-09T21:00:00:Z","depth":"4","parameterNumber":3,"parameterNumberName":"V-component_of_CURRENTS"},"data":[0,0,0,0,0,0,0,0,0,0,0,0,0,0,0,0,0,0,0,0,0,0,0,0,0,0,0,0,0,0,0,0,0,0,0,0,0,0,0,0,0,0,0,0,0,0,0,0,0,0,0,0,0,0,0,0,0,0,0.0281,0.028,0,0.0227,0.0226,0.0226,0.0179,0.0178,0.0178,0.0178,0.0114,0.0113,0.0111,0,0,0,0,0,0,0,0,0,0,0,0,0,0.0285,0.0286,0.0281,0.028,0.0279,0.0227,0.0226,0.0225,0.0179,0.0178,0.0178,0.0177,0.0114,0.0113,0.0111,0,0,0,0,0,0,0,0,0,0,0,0,0,0.0262,0.0286,0.0281,0.0251,0.0247,0.0227,0.0226,0.0225,0.0179,0.0178,0.0178,0.0177,0.0115,0.0113,0.0111,0.0113,0,0,0.0105,0.0105,0,0,0,0,0,0,0,0,0.0263,0.0262,0.0256,0.0253,0.0249,0.021,0.0205,0.0187,0.0179,0.0204,0.0178,0.0177,0.0146,0.0142,0.0132,0.011,0.0107,0.0105,0.0104,0.0103,0.0103,0,0,0,0,0,0,0,0.0265,0.0263,0.0258,0.0255,0.0251,0.022,0.0216,0.0201,0.0179,0.0202,0.0199,0.0194,0.0144,0.0134,0.013,0.0106,0.0105,0.0104,0.0102,0.0102,0.0011,0.001,0,0,0,0,0,0,0.0277,0.0265,0.026,0.0257,0.0256,0.0221,0.0217,0.0222,0.0179,0.0172,0.0195,0.0192,0.0137,0.0132,0.0128,0.0081,0.0103,0.0101,0.01,0.0013,0.0011,0.001,0,0,0,0,0,0,0.0278,0.0278,0.0262,0.026,0.0256,0.0222,0.0228,0.0222,0.0191,0.0174,0.0166,0.0169,0.0137,0.013,0.0093,0.008,0.0101,0.0099,0.0014,0.0012,0.001,0.0018,0,0,0,0,0,0,0.0278,0.0279,0.0287,0.0261,0.0256,0.0244,0.0229,0.0221,0.0191,0.0186,0.015,0.0144,0.0136,0.0095,0.0091,0.0078,0.0097,0.0016,0.0013,0.0011,0.002,0.0017,0.0015,0,0,0,0,0,0.0279,0.0288,0.0288,0.0287,0.0269,0.0244,0.0238,0.0211,0.019,0.018,0.0146,0.0144,0.0077,0.0093,0.0088,0.0074,0.0017,0.0014,0.0011,0.0021,0.0018,0.0015,0,0,0,0,0,0,0.0278,0.0284,0.0283,0.0289,0.0268,0.0236,0.0226,0.0201,0.0166,0.0154,0.0132,0.0124,0.0084,0.0074,0.0092,0.0038,0.0045,0.0041,0.0054,0.0051,0.0048,0.0054,0.0096,0,0,0,0,0,0.0289,0.0308,0.029,0.0294,0.0284,0.0251,0.0236,0.0212,0.0179,0.0162,0.0132,0.0098,0.0072,0.0057,0.0032,0.0007,-0.0013,-0.0008,-0.0011,-0.0013,-0.0014,-0.007,-0.0077,0.0,0.0001,0.0001,0,0,0.0286,0.0295,0.0302,0.0297,0.0278,0.0265,0.0239,0.0209,0.0191,0.0162,0.012,0.0087,0.0061,0.003,0.0012,0.0019,-0.0044,-0.0016,-0.0017,-0.0018,-0.0074,-0.0081,-0.0088,-0.0001,-0.0001,-0.0001,0,0,0.0289,0.03,0.0311,0.03,0.0279,0.0262,0.0249,0.0205,0.0179,0.0138,0.0109,0.0066,0.0025,0.0005,-0.0009,-0.0042,-0.0059,-0.0056,-0.0057,-0.0111,-0.0118,-0.0124,-0.0147,-0.0155,-0.0052,-0.0052,-0.0052,0,0.0278,0.0302,0.0303,0.0303,0.0297,0.026,0.0248,0.0222,0.0166,0.0144,0.0123,0.0037,0.0015,-0.002,-0.0034,-0.0045,-0.0074,-0.0038,-0.0113,-0.0119,-0.0126,-0.0149,-0.0158,-0.0052,-0.0052,-0.0052,-0.0052,0,0.0279,0.03,0.0299,0.0304,0.0294,0.0276,0.0248,0.0218,0.0178,0.0144,0.0081,0.0036,-0.0018,-0.003,-0.0041,-0.0095,-0.01,-0.0111,-0.0099,-0.0133,-0.0155,-0.0165,-0.0052,-0.0052,-0.0052,-0.0052,0,0,0.025,0.0293,0.0296,0.0307,0.0293,0.028,0.0259,0.0226,0.0196,0.0134,0.0086,0.0031,-0.0016,-0.0036,-0.0067,-0.0107,-0.017,-0.0129,-0.0132,-0.0141,-0.0279,-0.0238,-0.0245,-0.0202,-0.0204,-0.0206,-0.0271,0,0.0244,0.0269,0.0289,0.0297,0.03,0.0284,0.0269,0.0234,0.0187,0.0131,0.0072,0.0009,-0.001,-0.0054,-0.0098,-0.0163,-0.0198,-0.015,-0.0255,-0.0257,-0.0209,-0.0256,-0.0212,-0.0278,-0.028,-0.0282,-0.0283,0,0.023,0.0261,0.0279,0.0309,0.0305,0.0301,0.0271,0.0244,0.0177,0.0133,0.0061,0.0003,-0.0074,-0.0092,-0.0208,-0.0182,-0.0231,-0.027,-0.0274,-0.0246,-0.0235,-0.0244,-0.0301,-0.0299,-0.0298,-0.0297,-0.0296,0,0.021,0.0249,0.0274,0.028,0.03,0.0298,0.0286,0.0237,0.0211,0.0114,0.0075,-0.0024,-0.0091,-0.0174,-0.0252,-0.025,-0.0367,-0.0374,-0.0374,-0.037,-0.0387,-0.0381,-0.0452,-0.0452,-0.0452,-0.0452,-0.0452,0,0.0197,0.0218,0.027,0.0281,0.0296,0.0292,0.0274,0.0243,0.0187,0.0154,0.0062,0.0014,-0.0122,-0.0197,-0.0264,-0.0344,-0.0382,-0.0383,-0.0394,-0.0381,-0.0373,-0.0393,-0.0386,-0.0454,-0.0454,-0.0453,-0.0453,0,0.0175,0.0209,0.0243,0.0281,0.0292,0.029,0.0287,0.0269,0.0207,0.0158,0.0123,0.0017,-0.0089,-0.0185,-0.032,-0.0355,-0.0435,-0.0446,-0.0406,-0.0412,-0.0398,-0.0389,-0.0472,-0.0472,-0.0471,-0.0471,-0.047,0,0.0176,0.0193,0.0244,0.027,0.0294,0.0298,0.0306,0.0272,0.0249,0.0172,0.0149,0.0039,-0.0032,-0.0191,-0.0291,-0.0413,-0.0418,-0.0457,-0.0448,-0.0402,-0.0405,-0.0397,-0.039,-0.0469,-0.0469,-0.0469,-0.0469,0,0.0186,0.02,0.023,0.0277,0.0308,0.0328,0.0328,0.031,0.0263,0.0234,0.0151,0.0059,-0.0047,-0.018,-0.0271,-0.0352,-0.044,-0.0451,-0.0453,-0.0445,-0.04,-0.0401,-0.0394,-0.0467,-0.0467,-0.0467,-0.0468,0,0.0198,0.0217,0.0257,0.0295,0.0332,0.0343,0.0334,0.0314,0.0286,0.0205,0.0187,0.0066,-0.0013,-0.0145,-0.0225,-0.0309,-0.033,-0.0355,-0.0363,-0.0366,-0.0309,-0.0234,-0.0271,0,0,0,0,0,0.0219,0.0245,0.0279,0.0325,0.0353,0.0372,0.0357,0.0339,0.0303,0.0254,0.0213,0.012,-0.0025,-0.0098,-0.0177,-0.0208,-0.0339,-0.0301,-0.0369,-0.0456,-0.0458,-0.0406,0,0,0,0,0,0,0.0239,0.0273,0.0285,0.0341,0.0372,0.0403,0.0386,0.0357,0.0309,0.0261,0.0175,0.0136,-0.0015,0.0037,-0.016,-0.0187,-0.0236,-0.037,-0.0371,-0.0455,-0.0457,-0.0459,-0.0406,0,0,0,0,0]}]]